Preview of NWS' New Version of Forecast
This preview is not operational and should not be used for support decisions.

Regional Weather Roundup (RWR)

Issued by National Weather Service (NWS)

                            
000
ASUS45 KABQ 221510
RWRNM 
NEW MEXICO REGIONAL WEATHER ROUNDUP
NATIONAL WEATHER SERVICE ALBUQUERQUE NM
900 AM MDT THU AUG 22 2019

NOTE: "FAIR" MEANS FEW OR NO CLOUDS BELOW 12,000 FEET AGL WITH NO
       SIGNIFICANT WEATHER OR OBSTRUCTIONS TO VISION.

      THIS PRODUCT IS RELEASED AS TWO VERSIONS.  ONE VERSION NEAR
      THE TOP OF THE HOUR CONTAINING PRELIMINARY DATA FROM ALBUQUERQUE
      AND OTHER STATIONS.  A FINAL VERSION WITH ADDITIONAL DATA IS 
      ISSUED ABOUT 10 MINUTES AFTER THE HOUR.
 
NMZ501-503-504-510>518-221600-
NORTHWEST PLATEAU/NORTHCENTRAL MOUNTAINS
  
CITY           SKY/WX    TMP DP  RH WIND       PRES   REMARKS
FARMINGTON     FAIR      72  43  35 E9        30.11R                  
LOS ALAMOS       N/A     62  47  58 CALM      30.28S                  
SANTA FE       FAIR      66  52  60 SE9       30.22R                  
TAOS             N/A     61  47  59 CALM      30.29S                  
ANGEL FIRE     FAIR      45  44  97 CALM      30.36F                  

$$
NMZ402-403-502-505>509-221600-
WESTCENTRAL MOUNTAINS/SOUTHWEST MOUNTAINS
  
CITY           SKY/WX    TMP DP  RH WIND       PRES   REMARKS
GALLUP         FAIR      73  43  33 SW10      30.19R                  
GRANTS         FAIR      68  49  50 SE15      30.23S                  
SILVER CITY    FAIR      72  52  49 SE6       30.18R                  

$$
NMZ407-409-411-412-221600-
SOUTHERN DESERTS
  
CITY           SKY/WX    TMP DP  RH WIND       PRES   REMARKS
DEMING         FAIR      72  59  63 CALM      30.11S                  
LAS CRUCES     FAIR      76  55  47 CALM      30.12S                  
HOLLOMAN AFB   FAIR      79  56  45 SW7       30.11R                  
ALAMOGORDO     FAIR      75  55  50 SW3       30.10S                  
T OR C         FAIR      74  54  49 CALM      30.13R                  

$$
NMZ519>523-221600-
CENTRAL VALLEYS/CENTRAL HIGHLANDS
  
CITY           SKY/WX    TMP DP  RH WIND       PRES   REMARKS
ALBUQUERQUE    FAIR      69  53  56 NW3       30.16R                  
DOUBLE EAGLE   MOSUNNY   68  52  56 VRB5      30.19R                  
MORIARTY ARPT  FAIR      63  57  82 CALM      30.24R                  
CLINES CORNERS FAIR      66  52  60 SW10      30.27S                  
BELEN          FAIR      70  50  49 CALM      30.16S                  
SOCORRO        FAIR      70  54  56 SE3       30.13S                  

$$
NMZ524>526-539-540-221600-
SOUTHCENTRAL MOUNTAINS
  
CITY           SKY/WX    TMP DP  RH WIND       PRES   REMARKS
RUIDOSO        FAIR      64  52  63 SE5       30.28S                  

$$
NMZ527>531-221600-
NORTHEAST HIGHLANDS/NORTHEAST PLAINS
  
CITY           SKY/WX    TMP DP  RH WIND       PRES   REMARKS
LAS VEGAS      FAIR      65  49  56 SW14      30.24F                  
RATON          FAIR      62  50  64 CALM      30.20S                  
CLAYTON        FAIR      71  56  58 SW10      30.10S                  

$$
NMZ532>537-221600-
EASTCENTRAL PLAINS
  
CITY           SKY/WX    TMP DP  RH WIND       PRES   REMARKS
SANTA ROSA     FAIR      70  60  71 SW3       30.13S                  
TUCUMCARI      FAIR      72  61  68 W6        30.07R                  
CANNON AFB     FAIR      73  61  65 W8        30.12R                  
CLOVIS AIRPORT FAIR      70  60  70 SW7       30.12R                  

$$
NMZ028-029-538-221600-
SOUTHEAST PLAINS
  
CITY           SKY/WX    TMP DP  RH WIND       PRES   REMARKS
ROSWELL        FAIR      79  59  50 S8        30.07S                  
ARTESIA        FAIR      75  59  57 CALM      30.08F                  
CARLSBAD       FAIR      79  57  46 N6        30.04R                  
HOBBS          PTSUNNY   81  57  44 E8        30.07                   


$$